Tracking 17558 objects as of 14-February-2016
HD Live streaming from Space Station
objects crossing your sky now

NAVSTAR 19 (USA 54)

Track NAVSTAR 19 (USA 54) now!
NAVSTAR 19 (USA 54) is classified as:


NORAD ID: 20533
Int'l Code: 1990-025A
Perigee: 20,963.2 km
Apogee: 21,174.2 km
Inclination: 55.5 °
Period: 753.9 minutes
Semi major axis: 27439 km
RCS: 0.6015 m2 (medium)
Launch date: March 26, 1990
Source: United States (US)
Launch site: AIR FORCE EASTERN TEST RANGE (AFETR)
PRN:
Your satellite tracking list
Your tracking list is empty





NASA's NSSDC Master Catalog

Two Line Element Set (TLE):
1 20533U 90025A   16045.49923051 -.00000055  00000-0  00000+0 0  9998
2 20533  55.4950  23.4422 0038447 147.8079  69.5154  1.9138114182955
Source of the keplerian elements: AFSPC

N2YO: 378